#timestamp,LO_Frequency,Hit 
1503928815.2,286047000.7,N
1503928835.9,286046998.8,N
1503928855.7,286046998.6,N
1503928875.5,286046998.8,N
1503928895.4,286046998.9,N
1503928915.2,286046999.6,N
1503928935.0,286046998.9,N
1503928935.9,286046998.9,N
1503928955.8,286046997.7,N
1503928975.6,286046997.4,N
1503928995.4,286046995.2,P
1503929015.3,286046997.1,N
1503929035.1,286046996.8,N
1503929055.8,286046997.2,N
1503929075.7,286046996.6,N
1503929095.5,286046995.4,P
1503929115.3,286046998.4,N
1503929135.2,286046999.0,N
1503929155.9,286046996.5,N
1503929175.7,286046997.0,N
1503929195.6,286046997.0,N
1503929215.4,286046997.8,N
1503929235.2,286046997.7,N
1503929255.1,286046997.6,N
1503929256.0,286046997.6,N
1503929275.8,286046995.0,P
1503929295.6,286046998.1,N
1503929315.5,286046996.5,N
1503929335.3,286046998.8,N
1503929355.1,286046999.1,N
1503929375.9,286046999.0,N
1503929395.7,286046998.3,N
1503929415.5,286047000.9,N
1503929435.4,286046998.6,N
1503929455.2,286046998.3,N
1503929475.0,286046998.6,N
1503929475.9,286046998.6,N
1503929495.7,286046998.5,N
1503929515.6,286046999.0,N
1503929535.4,286047000.8,N
1503929555.2,286046998.9,N
1503929575.1,286046998.3,N
1503929576.0,286046998.3,N
1503929595.8,286046999.1,N
1503929615.6,286046999.1,N
1503929635.5,286046996.6,N
1503929655.3,286046997.3,N
1503929675.1,286046997.0,N
1503929695.9,286046996.7,N
1503929715.7,286046998.0,N
1503929735.5,286046995.0,P
1503929755.4,286046998.0,N
1503929775.2,286046997.4,N
1503929795.0,286046995.3,P
1503929795.9,286046995.3,P
1503929815.8,286046998.2,N
1503929835.6,286046998.2,N
1503929855.4,286046998.3,N
1503929875.3,286047000.8,N
1503929895.1,286047000.9,N
1503929896.0,286047000.9,N
1503929915.8,286047000.0,N
1503929935.7,286047000.7,N
1503929955.5,286047000.9,N
1503929975.3,286046999.0,N
1503929995.2,286046996.9,N
1503930015.9,286046997.2,N
1503930035.7,286046997.1,N
1503930055.5,286046996.5,N
1503930075.4,286046996.9,N
1503930095.2,286046997.7,N
1503930115.0,286046997.3,N
1503930115.9,286046997.3,N
1503930135.8,286046997.8,N
1503930155.6,286046997.5,N
1503930175.4,286046995.1,N
1503930195.3,286046996.4,N
1503930215.1,286046993.4,P
1503930235.8,286046998.0,N
1503930255.7,286046997.9,N
1503930275.5,286046997.9,N
1503930295.3,286046997.8,N
1503930315.2,286046997.3,N
1503930335.9,286046996.4,N
1503930355.7,286046995.9,N
1503930375.6,286046993.5,P
1503930395.4,286046996.9,N
1503930415.2,286046999.4,N
1503930435.1,286046999.1,N
1503930436.0,286046999.1,N
1503930455.8,286046999.4,N
1503930475.6,286046997.9,N
1503930495.5,286046996.6,N
1503930515.3,286046995.2,N
1503930535.1,286046997.2,N
1503930555.8,286046997.5,N
1503930575.7,286046995.4,N
1503930595.5,286046998.0,N
1503930615.3,286046996.2,N
1503930635.2,286046996.1,N
1503930655.9,286046995.9,N
1503930675.7,286046995.6,N
1503930695.6,286046995.7,N
1503930715.4,286046995.6,N
1503930735.2,286046995.5,N
1503930755.1,286046995.7,N
1503930756.0,286046995.7,N
1503930775.8,286046995.9,N
1503930795.6,286046996.2,N
1503930815.5,286046996.4,N
1503930835.3,286046992.1,P
1503930855.1,286046996.3,N
1503930875.9,286046993.4,P
1503930895.7,286046995.9,N
1503930915.5,286046996.3,N
1503930935.3,286046995.9,N
1503930955.2,286046995.8,N
1503930975.0,286046995.7,N
1503930975.9,286046995.7,N
1503930995.8,286046995.9,P
1503931015.6,286046998.1,P
1503931035.4,286046999.1,N
1503931055.2,286047001.1,N
1503931075.1,286047001.2,N
1503931076.0,286047001.2,N
1503931095.8,286046998.7,N
1503931115.6,286047001.2,N
1503931135.5,286046998.4,N
1503931155.3,286046998.3,N
1503931175.1,286047000.5,N
1503931195.9,286047001.2,N
1503931215.7,286047000.7,N
1503931235.5,286047000.5,N
1503931255.4,286047000.5,N
1503931275.2,286047001.0,N
1503931295.0,286047000.8,N
1503931295.9,286047000.8,N
1503931315.8,286046998.6,N
1503931335.6,286046998.4,N
1503931355.4,286046999.4,N
1503931375.3,286046999.2,N
1503931395.1,286046997.1,N
1503931396.0,286046997.1,N
1503931415.8,286046997.0,N
1503931435.6,286046997.0,N
1503931455.5,286046997.2,N
1503931475.3,286046996.7,N
1503931495.1,286046996.8,N
1503931515.9,286046997.1,N
1503931535.7,286046997.4,N
1503931555.5,286046995.7,N
1503931575.4,286046995.6,N
1503931595.2,286046995.7,N
1503931615.0,286046995.3,N
1503931615.9,286046995.3,N
1503931635.8,286046995.2,N
1503931655.6,286046995.0,N
1503931675.4,286046995.9,N
1503931695.3,286046996.2,N
1503931715.1,286046995.9,N
1503931716.0,286046995.9,N
1503931735.8,286046996.2,N
1503931755.7,286046993.3,P
1503931775.5,286046996.5,N
1503931795.3,286046996.6,N
1503931815.2,286046999.0,N
1503931835.9,286046998.0,N
1503931855.7,286046995.1,N
1503931875.6,286046996.4,N
1503931895.4,286046993.6,P
1503931915.2,286046999.6,N
1503931935.1,286046997.4,N
1503931936.0,286046997.4,N
1503931955.8,286046996.7,N
1503931975.6,286046999.5,N
1503931995.5,286046996.7,N
1503932015.3,286046999.4,N
1503932035.1,286046998.8,N
1503932055.8,286046999.4,N
1503932075.7,286046998.5,N
1503932095.5,286047001.2,N
1503932115.3,286047001.1,N
1503932135.2,286046998.1,N
1503932155.9,286046997.4,N
1503932175.7,286046995.4,N
1503932195.6,286046995.3,N
1503932215.4,286046997.9,N
1503932235.2,286046997.1,N
1503932255.0,286046997.3,N
1503932256.0,286046997.3,N
1503932275.8,286046997.6,N
1503932295.6,286046994.9,N
1503932315.4,286046997.9,N
1503932335.3,286046997.9,N
1503932355.1,286046995.0,N
1503932375.8,286046997.8,N
1503932395.7,286046997.8,N
